Vertical_Velocity
-3 -2 -2 0 -2 -0 -1 -2 1 -0 -1 -0 0 -1 -2 -0 -1 -0 -3 -1 -0 -1 -0 0 -1 -1 -1 -2 -1 0 0 0 -0
-3 -2 -2 -1 -1 -1 -2 0 1 -2 -2 -1 -1 -2 -2 1 0 -1 -2 -2 -2 -1 -0 -0 -2 -1 -1 -1 -1 -0 -1 0 -3
1 0 -2 -2 -2 -3 -2 -1 1 -2 -2 -1 -1 -3 -2 -1 1 -1 -2 -1 0 -1 -1 -1 -2 -0 -2 -1 -0 -1 -2 0 0
2 2 -1 0 -1 -3 -2 -2 -1 -2 -1 0 -1 -4 -4 -1 -1 -1 -2 -1 -0 -1 -1 -1 -1 -1 -2 -1 -2 -2 -1 -2 -2
3 2 -0 2 -3 -1 -3 0 -1 -1 1 -0 -1 -2 -2 1 -0 -0 -2 -2 1 -1 -0 -2 -1 1 0 -0 -1 -0 0 2 -2
1 0 1 0 0 1 -2 -1 -0 -1 1 1 0 -1 -2 -1 -2 -0 -1 -1 1 -1 -0 -1 -0 -2 -1 -1 -0 -0 -2 -2 2
-1 -2 1 0 1 3 -0 1 0 -1 1 0 1 1 -1 1 1 1 -1 -0 0 -0 -1 -0 0 -2 0 -2 -1 -0 2 -2 -0
-3 -3 -2 -4 -1 0 1 1 0 -1 -0 2 0 0 -1 1 1 -0 1 0 -0 -0 -1 -1 -2 -1 -0 0 -1 -0 -0 -1 -1
-1 -3 -1 -2 -4 -3 -2 -1 -1 -2 -2 -2 -0 -0 -1 -1 -1 -2 -1 -1 -0 -0 -0 0 -0 -1 -0 -0 0 1 2 2 -1
2 -2 0 1 3 5 3 1 0 -2 1 1 -1 -1 -1 -2 -2 -1 -2 -2 -2 -1 0 -1 -1 -0 0 -0 1 0 -0 -1 -2
1 -1 1 -0 1 2 1 1 0 1 -0 -0 2 2 1 2 1 1 -1 -1 -0 -0 -1 -1 -1 -2 -2 -2 1 2 0 0 2
2 -1 -1 1 1 1 2 1 -1 -2 0 1 -0 -0 0 0 2 3 1 1 -0 -0 -0 0 1 0 -1 0 -1 0 2 -0 -2
2 2 -0 1 -1 -0 -0 -1 -0 -0 -0 -1 -1 -1 -1 1 1 0 3 3 2 1 0 0 -0 1 2 -1 0 0 -0 -0 -0
-1 0 1 0 -0 -1 -0 0 1 0 0 -1 0 1 1 -0 -2 1 2 -0 -1 -1 -1 1 -4 -2 -0 -0 -5 -1 -3 0 -3
-1 1 1 1 2 2 -2 -2 -1 -1 0 -0 1 1 -0 1 -1 0 -3 -1 -2 1 1 5 -1 -3 0 -1 -1 -0 4 3 -1
0 -1 0 -1 -3 -1 2 1 -0 -1 1 1 -1 -1 0 -2 -2 1 -1 -1 0 3 -1 -1 2 2 0 3 1 -2 -0 13 14
-0 -1 -2 -0 1 -2 -1 -1 -1 2 0 1 1 -3 -6 -3 0 -2 0 3 0 1 1 -1 -3 3 3 4 -1 -1 -3 -4 3
0 1 -1 -1 1 4 2 -0 0 1 3 2 -3 -1 -3 -1 2 2 -3 -1 -2 0 4 2 -0 2 1 2 4 -2 1 -1 -4
10 5 12 6 9 -4 1 11 0 3 4 8 -2 -3 -1 -3 -3 7 0 2 -3 -3 1 1 0 2 -1 1 5 -9 4 -1 -1
3 6 11 1 5 7 -1 -6 -23 -5 -8 7 5 -1 -5 6 -4 -8 -3 1 1 -2 -2 -1 -4 -4 -3 3 -2 -3 -4 -2 -2
Height
1547 1550 1552 1553 1554 1556 1559 1560 1562 1564 1566 1567 1568 1568 1569 1569 1569 1569 1569 1570 1570 1569 1569 1569 1568 1568 1567 1567 1566 1565 1564 1563 1562
1547 1550 1552 1554 1556 1559 1561 1563 1565 1566 1568 1569 1570 1570 1571 1571 1571 1571 1571 1572 1572 1571 1571 1571 1570 1570 1569 1569 1569 1568 1567 1567 1566
1548 1550 1552 1555 1558 1561 1563 1565 1567 1568 1570 1571 1572 1572 1574 1574 1574 1574 1574 1574 1574 1574 1574 1573 1573 1572 1572 1572 1571 1571 1570 1570 1569
1549 1551 1554 1557 1560 1563 1565 1567 1569 1571 1572 1573 1574 1574 1576 1576 1576 1576 1576 1576 1576 1576 1576 1575 1575 1575 1575 1574 1574 1573 1573 1572 1572
1550 1553 1556 1559 1561 1564 1567 1569 1571 1573 1574 1575 1576 1577 1577 1578 1578 1578 1578 1579 1578 1578 1578 1578 1578 1577 1577 1576 1576 1576 1575 1575 1574
1552 1555 1557 1561 1564 1566 1568 1570 1573 1574 1576 1577 1578 1578 1579 1579 1579 1580 1580 1581 1580 1580 1580 1580 1580 1580 1579 1579 1578 1577 1577 1577 1576
1553 1556 1559 1562 1566 1568 1570 1572 1573 1576 1577 1578 1579 1580 1580 1581 1581 1581 1582 1582 1582 1582 1582 1582 1582 1581 1581 1580 1580 1579 1579 1578 1578
1552 1556 1560 1563 1567 1569 1571 1573 1574 1576 1578 1579 1580 1581 1582 1582 1582 1583 1583 1584 1584 1584 1583 1583 1583 1582 1582 1582 1581 1580 1579 1579 1579
1552 1556 1560 1564 1566 1569 1571 1573 1575 1577 1578 1580 1581 1582 1582 1583 1583 1584 1584 1584 1585 1585 1584 1584 1584 1583 1583 1582 1581 1581 1581 1580 1580
1553 1557 1561 1564 1567 1569 1571 1573 1575 1577 1579 1579 1581 1582 1582 1583 1583 1584 1584 1585 1585 1585 1585 1585 1585 1584 1584 1583 1583 1582 1581 1581 1580
1554 1557 1561 1564 1567 1570 1572 1574 1576 1578 1579 1580 1581 1581 1582 1583 1583 1583 1583 1584 1584 1584 1584 1584 1584 1584 1584 1584 1583 1583 1582 1581 1581
1554 1558 1561 1565 1568 1570 1572 1574 1575 1577 1578 1580 1580 1581 1582 1582 1583 1583 1583 1584 1584 1584 1584 1584 1584 1584 1583 1583 1584 1583 1583 1582 1582
1554 1557 1561 1565 1567 1569 1571 1573 1574 1576 1577 1578 1579 1580 1581 1581 1582 1582 1582 1582 1582 1583 1583 1583 1584 1583 1583 1583 1583 1583 1583 1582 1582
1555 1558 1561 1564 1566 1568 1570 1572 1574 1575 1576 1577 1578 1578 1578 1579 1580 1581 1581 1581 1582 1582 1582 1581 1582 1583 1583 1582 1582 1582 1581 1582 1581
1554 1557 1560 1563 1565 1567 1568 1570 1572 1574 1575 1575 1576 1576 1576 1576 1577 1578 1579 1580 1580 1581 1580 1580 1579 1580 1580 1580 1580 1581 1581 1579 1579
1552 1555 1559 1561 1563 1566 1568 1569 1569 1571 1573 1573 1573 1573 1573 1573 1573 1574 1575 1575 1577 1577 1578 1579 1578 1578 1578 1578 1578 1579 1580 1579 1578
1550 1553 1556 1558 1560 1561 1563 1565 1567 1569 1570 1570 1571 1570 1570 1568 1568 1570 1571 1572 1573 1574 1575 1575 1576 1576 1575 1576 1576 1577 1578 1578 1577
1547 1549 1552 1555 1557 1558 1560 1562 1564 1566 1567 1567 1570 1569 1566 1565 1564 1564 1566 1569 1570 1571 1571 1572 1572 1573 1573 1573 1574 1573 1573 1573 1573
1545 1546 1549 1551 1553 1556 1560 1561 1562 1564 1564 1564 1562 1565 1566 1565 1565 1563 1563 1565 1566 1568 1569 1570 1570 1570 1570 1570 1570 1569 1569 1569 1568
1541 1543 1545 1549 1552 1553 1553 1553 1557 1558 1559 1561 1557 1557 1560 1561 1560 1560 1561 1562 1563 1563 1565 1565 1567 1567 1566 1565 1565 1565 1565 1564 1563